Weather History for Billings, MT

Change the Weather History Date:

Saturday, March 8, 2014

  Actual Average Record
Temperature  
Mean Temperature 41 °F 36 °F  
Max Temperature 53 °F 46 °F 66 °F (2004)
Min Temperature 29 °F 25 °F -16 °F (1951)
Degree Days  
Heating Degree Days 24 29  
Month to date heating degree days 341 243  
Since 1 July heating degree days 5614 5208  
Cooling Degree Days 0 0  
Month to date cooling degree days 0 0  
Year to date cooling degree days 0 0  
Moisture  
Dew Point 28 °F    
Average Humidity 60    
Maximum Humidity 78    
Minimum Humidity 41    
Precipitation  
Precipitation 0.00 in 0.02 in 0.44 in (1987)
Month to date precipitation 0.05 0.20  
Year to date precipitation 3.13 1.16  
Snow  
Snow 0.00 in 0.30 in 7.70 in (2003)
Month to date snowfall 1.3 2.4  
Since 1 July snowfall 91.5 36.9  
Snow Depth 1.00 in    
Sea Level Pressure  
Sea Level Pressure 30.10 in    
Wind  
Wind Speed 18 mph (WSW)    
Max Wind Speed 29 mph    
Max Gust Speed 37 mph    
Visibility 10 miles    
Events      
T = Trace of Precipitation, MM = Missing Value Source: NWS Daily Summary

Daily Weather History Graph

Daily Weather History Graph

Search for Another Location

Airport:

Trip Planner

Search our weather history database for the weather conditions in past years. The results will help you decide how hot, cold, wet, or windy it might be!

Date:

Astronomy

Mar. 08, 2014 Rise Set
Actual Time 6:39 AM MST 6:10 PM MST
Civil Twilight 6:10 AM MST 6:40 PM MST
Nautical Twilight 5:35 AM MST 7:14 PM MST
Astronomical Twilight 5:00 AM MST 7:49 PM MST
Moon 11:04 AM MST (3/8) 1:30 AM MST (3/8)
Length of Visible Light 12h 30m
Length of Day
11h 30m
First Quarter, 52% of the Moon is Illuminated
Mar 8
First Quarter
Mar 16
Full
Mar 23
Last Quarter
Mar 30
New
Apr 7
First Quarter

Hourly Weather History & Observations

Time (MST) Temp. Windchill Dew Point Humidity Pressure Visibility Wind Dir Wind Speed Gust Speed Precip Events Conditions
12:53 AM 36.0 °F 28.5 °F 27.0 °F 70% 30.24 in 10.0 mi WSW 10.4 mph - N/A   Clear
1:53 AM 37.0 °F 27.7 °F 27.0 °F 67% 30.22 in 10.0 mi WSW 16.1 mph - N/A   Clear
2:53 AM 35.1 °F 26.9 °F 27.0 °F 72% 30.22 in 10.0 mi SW 11.5 mph - N/A   Clear
3:53 AM 35.1 °F 26.4 °F 26.1 °F 70% 30.21 in 10.0 mi WSW 12.7 mph - N/A   Clear
4:53 AM 35.1 °F 25.9 °F 26.1 °F 70% 30.21 in 10.0 mi SW 13.8 mph - N/A   Clear
5:53 AM 32.0 °F 24.2 °F 26.1 °F 79% 30.21 in 10.0 mi SSW 9.2 mph - N/A   Partly Cloudy
6:53 AM 30.9 °F 22.2 °F 25.0 °F 79% 30.20 in 10.0 mi SW 10.4 mph - N/A   Mostly Cloudy
7:53 AM 37.0 °F 28.5 °F 27.0 °F 67% 30.20 in 10.0 mi WSW 13.8 mph - N/A   Scattered Clouds
8:53 AM 41.0 °F 31.6 °F 28.0 °F 60% 30.20 in 10.0 mi WSW 20.7 mph - N/A   Scattered Clouds
9:53 AM 44.1 °F 35.4 °F 28.0 °F 53% 30.19 in 10.0 mi WSW 21.9 mph 26.5 mph N/A   Scattered Clouds
10:53 AM 46.9 °F - 28.9 °F 50% 30.16 in 10.0 mi WSW 21.9 mph 33.4 mph N/A   Scattered Clouds
11:53 AM 48.0 °F - 30.9 °F 52% 30.12 in 10.0 mi SW 23.0 mph 35.7 mph N/A   Scattered Clouds
12:53 PM 51.1 °F - 28.9 °F 43% 30.08 in 10.0 mi WSW 24.2 mph 36.8 mph N/A   Scattered Clouds
1:53 PM 52.0 °F - 28.9 °F 41% 30.06 in 10.0 mi SW 23.0 mph 34.5 mph N/A   Mostly Cloudy
2:53 PM 53.1 °F - 30.0 °F 41% 30.06 in 10.0 mi WSW 18.4 mph - N/A   Scattered Clouds
3:53 PM 52.0 °F - 30.9 °F 45% 30.06 in 10.0 mi WSW 18.4 mph 25.3 mph N/A   Mostly Cloudy
4:53 PM 50.0 °F - 30.9 °F 48% 30.04 in 10.0 mi WSW 21.9 mph - N/A   Mostly Cloudy
5:53 PM 48.0 °F - 30.9 °F 52% 30.04 in 10.0 mi WSW 17.3 mph - N/A   Mostly Cloudy
6:53 PM 46.9 °F - 30.0 °F 52% 30.02 in 10.0 mi WSW 17.3 mph 26.5 mph N/A   Mostly Cloudy
7:53 PM 48.0 °F - 27.0 °F 44% 29.99 in 10.0 mi WSW 20.7 mph 27.6 mph N/A   Mostly Cloudy
8:53 PM 48.0 °F - 27.0 °F 44% 29.96 in 10.0 mi WSW 20.7 mph - N/A   Scattered Clouds
9:53 PM 48.0 °F - 27.0 °F 44% 29.95 in 10.0 mi WSW 21.9 mph 28.8 mph N/A   Scattered Clouds
10:53 PM 46.9 °F - 27.0 °F 46% 29.93 in 10.0 mi WSW 20.7 mph 28.8 mph N/A   Mostly Cloudy
11:53 PM 46.0 °F 38.8 °F 27.0 °F 47% 29.91 in 10.0 mi WSW 18.4 mph 28.8 mph N/A   Scattered Clouds